Previsão horária em Ceara

Hoje, 25 Julho, Domingo

Tempo Temperatura Precipitação Vento Pressão Humidade
00:00 +24°C° 0 mm 1 m/s 743 mmHg 62%
01:00 +24°C° 0 mm 1 m/s 742 mmHg 62%
02:00 +24°C° 0 mm 1 m/s 742 mmHg 62%
03:00 +24°C° 0 mm 2 m/s 742 mmHg 62%
04:00 +23°C° 0 mm 2 m/s 742 mmHg 64%
05:00 +21°C° 0 mm 2 m/s 742 mmHg 67%
06:00 +21°C° 0 mm 1 m/s 743 mmHg 69%
07:00 +23°C° 0 mm 2 m/s 743 mmHg 62%
08:00 +26°C° 0 mm 3 m/s 744 mmHg 56%
09:00 +28°C° 0 mm 4 m/s 744 mmHg 49%
10:00 +30°C° 0 mm 4 m/s 744 mmHg 44%
11:00 +33°C° 0 mm 3 m/s 743 mmHg 38%
12:00 +35°C° 0 mm 3 m/s 743 mmHg 32%
13:00 +36°C° 0 mm 3 m/s 742 mmHg 30%
14:00 +36°C° 0 mm 3 m/s 741 mmHg 28%
15:00 +37°C° 0 mm 3 m/s 740 mmHg 26%
16:00 +35°C° 0 mm 2 m/s 740 mmHg 30%
17:00 +32°C° 0 mm 2 m/s 740 mmHg 34%
18:00 +30°C° 0 mm 1 m/s 740 mmHg 38%
19:00 +29°C° 0 mm 2 m/s 741 mmHg 41%
20:00 +28°C° 0 mm 2 m/s 742 mmHg 44%
21:00 +28°C° 0 mm 3 m/s 742 mmHg 47%
22:00 +26°C° 0 mm 2 m/s 742 mmHg 57%
23:00 +25°C° 0 mm 1 m/s 742 mmHg 67%

Amanhã, 26 Julho, Segunda-feira

Tempo Temperatura Precipitação Vento Pressão Humidade
00:00 +24°C° 0 mm 1 m/s 743 mmHg 77%
01:00 +24°C° 0 mm 1 m/s 742 mmHg 78%
02:00 +23°C° 0 mm 1 m/s 742 mmHg 80%
03:00 +23°C° 0 mm 1 m/s 742 mmHg 82%
04:00 +22°C° 0 mm 1 m/s 742 mmHg 82%
05:00 +22°C° 0 mm 1 m/s 743 mmHg 83%
06:00 +22°C° 0 mm 1 m/s 743 mmHg 83%
07:00 +24°C° 0 mm 2 m/s 743 mmHg 73%
08:00 +27°C° 0 mm 3 m/s 744 mmHg 63%
09:00 +29°C° 0 mm 4 m/s 744 mmHg 53%
10:00 +32°C° 0 mm 4 m/s 743 mmHg 47%
11:00 +33°C° 0 mm 3 m/s 743 mmHg 42%
12:00 +35°C° 0 mm 3 m/s 742 mmHg 37%
13:00 +35°C° 0 mm 3 m/s 741 mmHg 36%
14:00 +35°C° 0 mm 3 m/s 741 mmHg 35%
15:00 +36°C° 0 mm 3 m/s 740 mmHg 33%
16:00 +34°C° 0 mm 3 m/s 740 mmHg 37%
17:00 +31°C° 0 mm 2 m/s 740 mmHg 41%
18:00 +30°C° 0 mm 1 m/s 740 mmHg 44%
19:00 +29°C° 0 mm 2 m/s 741 mmHg 49%
20:00 +28°C° 0 mm 2 m/s 742 mmHg 53%
21:00 +28°C° 0 mm 2 m/s 743 mmHg 58%
22:00 +27°C° 0.2 mm 2 m/s 743 mmHg 66%
23:00 +26°C° 0.2 mm 2 m/s 743 mmHg 73%

Depois de amanhã, 27 Julho, Terça-feira

Tempo Temperatura Precipitação Vento Pressão Humidade
00:00 +25°C° 0.2 mm 1 m/s 743 mmHg 81%
01:00 +24°C° 0 mm 1 m/s 742 mmHg 84%
02:00 +24°C° 0 mm 1 m/s 742 mmHg 87%
03:00 +23°C° 0 mm 1 m/s 742 mmHg 90%
04:00 +23°C° 0 mm 1 m/s 742 mmHg 90%
05:00 +22°C° 0 mm 1 m/s 742 mmHg 91%
06:00 +22°C° 0 mm 1 m/s 742 mmHg 91%
07:00 +25°C° 0 mm 2 m/s 743 mmHg 77%
08:00 +27°C° 0 mm 2 m/s 743 mmHg 63%
09:00 +30°C° 0 mm 3 m/s 744 mmHg 49%
10:00 +33°C° 0 mm 3 m/s 743 mmHg 43%
11:00 +35°C° 0 mm 3 m/s 742 mmHg 37%
12:00 +36°C° 0 mm 3 m/s 742 mmHg 31%
13:00 +37°C° 0 mm 3 m/s 741 mmHg 30%
14:00 +37°C° 0 mm 3 m/s 740 mmHg 28%
15:00 +38°C° 0 mm 3 m/s 739 mmHg 26%
16:00 +36°C° 0 mm 2 m/s 740 mmHg 30%
17:00 +34°C° 0 mm 2 m/s 740 mmHg 33%
18:00 +31°C° 0 mm 2 m/s 740 mmHg 37%
19:00 +30°C° 0 mm 2 m/s 740 mmHg 42%
20:00 +29°C° 0 mm 2 m/s 741 mmHg 47%
21:00 +27°C° 0 mm 3 m/s 741 mmHg 52%
22:00 +27°C° 0 mm 3 m/s 741 mmHg 62%
23:00 +26°C° 0 mm 2 m/s 741 mmHg 72%

28 Julho, Quarta-feira

Tempo Temperatura Precipitação Vento Pressão Humidade
00:00 +25°C° 0 mm 2 m/s 741 mmHg 82%
01:00 +24°C° 0 mm 2 m/s 741 mmHg 86%
02:00 +24°C° 0 mm 1 m/s 741 mmHg 91%
03:00 +23°C° 0 mm 1 m/s 741 mmHg 96%
04:00 +21°C° 0 mm 0 m/s 741 mmHg 96%
05:00 +21°C° 0 mm 0 m/s 742 mmHg 96%
06:00 +21°C° 0 mm 0 m/s 742 mmHg 96%
07:00 +26°C° 0 mm 1 m/s 742 mmHg 82%
08:00 +28°C° 0 mm 2 m/s 743 mmHg 67%
09:00 +31°C° 0 mm 2 m/s 743 mmHg 53%
10:00 +32°C° 0 mm 2 m/s 743 mmHg 47%
11:00 +35°C° 0 mm 2 m/s 742 mmHg 41%
12:00 +37°C° 0 mm 3 m/s 741 mmHg 35%
13:00 +37°C° 0 mm 2 m/s 741 mmHg 33%
14:00 +37°C° 0 mm 2 m/s 740 mmHg 32%
15:00 +37°C° 0 mm 2 m/s 739 mmHg 31%
16:00 +36°C° 0 mm 2 m/s 739 mmHg 33%
17:00 +33°C° 0 mm 1 m/s 739 mmHg 36%
18:00 +32°C° 0 mm 1 m/s 740 mmHg 38%
19:00 +30°C° 0.1 mm 1 m/s 740 mmHg 49%
20:00 +29°C° 0.1 mm 2 m/s 741 mmHg 60%
21:00 +28°C° 0.1 mm 3 m/s 742 mmHg 71%
22:00 +27°C° 0.4 mm 2 m/s 742 mmHg 76%
23:00 +26°C° 0.4 mm 2 m/s 742 mmHg 82%

29 Julho, Quinta-feira

Tempo Temperatura Precipitação Vento Pressão Humidade
00:00 +25°C° 0.4 mm 1 m/s 742 mmHg 88%
01:00 +24°C° 0.2 mm 1 m/s 742 mmHg 91%
02:00 +24°C° 0.2 mm 1 m/s 742 mmHg 93%
03:00 +24°C° 0.2 mm 1 m/s 741 mmHg 96%
04:00 +24°C° 0 mm 1 m/s 742 mmHg 96%
05:00 +23°C° 0 mm 1 m/s 742 mmHg 97%
06:00 +23°C° 0 mm 1 m/s 742 mmHg 97%
07:00 +26°C° 0 mm 1 m/s 742 mmHg 84%
08:00 +28°C° 0 mm 2 m/s 743 mmHg 70%
09:00 +30°C° 0 mm 2 m/s 743 mmHg 57%
10:00 +33°C° 0 mm 3 m/s 743 mmHg 50%
11:00 +35°C° 0 mm 3 m/s 742 mmHg 42%
12:00 +37°C° 0 mm 3 m/s 741 mmHg 35%
13:00 +38°C° 0 mm 3 m/s 741 mmHg 33%
14:00 +38°C° 0 mm 3 m/s 740 mmHg 32%
15:00 +38°C° 0 mm 3 m/s 739 mmHg 31%
16:00 +36°C° 0.1 mm 2 m/s 740 mmHg 39%
17:00 +32°C° 0.1 mm 2 m/s 740 mmHg 47%
18:00 +30°C° 0.1 mm 2 m/s 740 mmHg 56%
19:00 +29°C° 0.7 mm 2 m/s 741 mmHg 65%
20:00 +27°C° 0.7 mm 2 m/s 742 mmHg 75%
21:00 +26°C° 0.7 mm 2 m/s 743 mmHg 85%
22:00 +25°C° 0.6 mm 2 m/s 743 mmHg 87%
23:00 +25°C° 0.6 mm 2 m/s 743 mmHg 90%

30 Julho, Sexta-feira

Tempo Temperatura Precipitação Vento Pressão Humidade
00:00 +25°C° 0.6 mm 2 m/s 743 mmHg 93%
01:00 +24°C° 0.1 mm 1 m/s 743 mmHg 94%
02:00 +24°C° 0.1 mm 1 m/s 742 mmHg 95%
03:00 +24°C° 0.1 mm 1 m/s 742 mmHg 97%
04:00 +24°C° 0.1 mm 1 m/s 742 mmHg 97%
05:00 +23°C° 0.1 mm 1 m/s 743 mmHg 97%
06:00 +23°C° 0.1 mm 1 m/s 743 mmHg 97%
07:00 +25°C° 0 mm 1 m/s 743 mmHg 86%
08:00 +27°C° 0 mm 2 m/s 744 mmHg 75%
09:00 +29°C° 0 mm 3 m/s 744 mmHg 64%
10:00 +31°C° 0 mm 3 m/s 744 mmHg 57%
11:00 +33°C° 0 mm 3 m/s 743 mmHg 50%
12:00 +34°C° 0 mm 2 m/s 743 mmHg 42%
13:00 +34°C° 0 mm 3 m/s 742 mmHg 42%
14:00 +34°C° 0 mm 3 m/s 742 mmHg 42%
15:00 +33°C° 0 mm 3 m/s 741 mmHg 42%
16:00 +31°C° 0 mm 2 m/s 741 mmHg 42%
17:00 +30°C° 0 mm 1 m/s 741 mmHg 43%
18:00 +29°C° 0 mm 1 m/s 741 mmHg 43%
19:00 +28°C° 0 mm 1 m/s 742 mmHg 50%
20:00 +27°C° 0 mm 2 m/s 742 mmHg 57%
21:00 +26°C° 0 mm 3 m/s 743 mmHg 65%
22:00 +26°C° 1.2 mm 3 m/s 743 mmHg 70%
23:00 +26°C° 1.2 mm 3 m/s 743 mmHg 76%
Mostrar mais

Necessitamos do seu Consentimento

A Meteoprog e os seus Fornecedores de Serviços podem armazenar e aceder a dados pessoais como cookies, identificadores do dispositivo ou outras tecnologias semelhantes existentes no seu dispositivo e processar estes dados para personalizar conteúdos e anúncios, assim como funcionalidades nas redes sociais e análise de tráfego.

  • Armazenar e/ou aceder a informações no seu dispositivo

    Os cookies, identificadores do dispositivo ou outras informações podem ser armazenados ou acedidos no seu dispositivo, para os fins acima indicados.

  • Anúncios e conteúdos personalizados, medição de anúncios e conteúdos, dados sobre o público-alvo e desenvolvimento de produtos

    Os anúncios e os conteúdos podem ser personalizados com base num perfil. Podem ser adicionados dados adicionais para uma maior personalização dos anúncios e dos conteúdos. A eficácia dos anúncios e dos conteúdos pode ser medida. Podem ser obtidas informações sobre o público que visualizou os anúncios e os conteúdos. Estes dados podem ser usados para desenvolver ou melhorar sistemas, softwares ou a experiência do utilizador.

Ao clicar em "Eu concordo”, permitirá o uso de cookies, identificadores do dispositivo e web beacons mencionados ou outras tecnologias semelhantes. As configurações do navegador do seu dispositivo podem ser alteradas.

Para certos fins, podem ser invocados interesses legítimos ao invés de consentimento. Pode ler mais informação sobre este assunto na nossa Política de Privacidade e Cookies.